DW3982 Weather Reports


time (UTC)temp
C
wind
direction
speed
KPH
gust
KPH
rain 1hr
cm
rain 24hr
cm
rain mn
cm
humidity
%
barometer
mb
20260505011445 17 172 8.0 12.9 0.00 0.00 0.00 57 1009.8
20260505010942 17 163 6.4 8.0 0.00 0.00 0.00 57 1009.3
20260505010438 17 186 6.4 8.0 0.00 0.00 0.00 56 1009.7
20260505005934 17 182 4.8 4.8 0.00 0.00 0.00 55 1009.6
20260505005431 17 210 9.7 12.9 0.00 0.00 0.00 54 1009.5
20260505004929 18 189 9.7 12.9 0.00 0.00 0.00 53 1009.5
20260505004425 18 272 4.8 8.0 0.00 0.00 0.00 53 1009.3
20260505003922 18 174 9.7 12.9 0.00 0.00 0.00 53 1009.3
20260505003419 18 192 14.5 17.7 0.00 0.00 0.00 52 1009.5
20260505002915 18 199 6.4 9.7 0.00 0.00 0.00 53 1009.2
20260505002412 18 198 9.7 12.9 0.00 0.00 0.00 53 1009.3
20260505001910 18 152 6.4 9.7 0.00 0.00 0.00 54 1009.3
20260505001408 18 186 9.7 12.9 0.00 0.00 0.00 55 1009.2
20260505000904 18 163 11.3 14.5 0.00 0.00 0.00 54 1009.1
20260505000403 19 199 8.0 9.7 0.00 0.00 0.00 53 1009.0
20260504235859 19 157 6.4 9.7 0.00 0.00 0.00 53 1009.0
20260504235356 20 292 11.3 12.9 0.00 0.00 0.00 51 1009.1
20260504234852 20 203 12.9 14.5 0.00 0.00 0.00 50 1009.0
20260504234350 21 206 8.0 8.0 0.00 0.00 0.00 47 1008.9
20260504233846 21 171 6.4 9.7 0.00 0.00 0.00 46 1008.8
20260504233342 21 185 11.3 14.5 0.00 0.00 0.00 45 1008.8
20260504232839 21 215 6.4 8.0 0.00 0.00 0.00 45 1008.9
20260504232336 21 174 3.2 8.0 0.00 0.00 0.00 44 1009.0
20260504231833 21 236 4.8 9.7 0.00 0.00 0.00 44 1008.7
20260504231329 21 186 6.4 9.7 0.00 0.00 0.00 44 1009.0
20260504230825 22 176 6.4 8.0 0.00 0.00 0.00 44 1008.6
20260504230323 22 254 3.2 4.8 0.00 0.00 0.00 43 1009.1
20260504225822 22 200 8.0 8.0 0.00 0.00 0.00 43 1009.1
20260504225318 22 221 8.0 12.9 0.00 0.00 0.00 42 1008.7
20260504224815 22 233 6.4 9.7 0.00 0.00 0.00 42 1009.0
20260504224312 22 241 6.4 12.9 0.00 0.00 0.00 41 1009.0
20260504223809 22 236 19.3 24.1 0.00 0.00 0.00 41 1009.1
20260504223304 22 274 14.5 17.7 0.00 0.00 0.00 41 1009.0
20260504222801 22 191 8.0 9.7 0.00 0.00 0.00 42 1009.2
20260504222258 22 267 9.7 14.5 0.00 0.00 0.00 41 1009.1
20260504221756 22 243 12.9 17.7 0.00 0.00 0.00 40 1009.2
20260504221253 22 260 16.1 22.5 0.00 0.00 0.00 40 1009.3
20260504220749 22 238 12.9 17.7 0.00 0.00 0.00 40 1008.8
20260504220246 22 278 17.7 27.4 0.00 0.00 0.00 40 1009.1
20260504215744 22 178 8.0 9.7 0.00 0.00 0.00 42 1009.2
20260504215240 22 160 12.9 14.5 0.00 0.00 0.00 41 1009.3
20260504214736 22 189 8.0 9.7 0.00 0.00 0.00 41 1009.2
20260504214233 22 185 19.3 22.5 0.00 0.00 0.00 39 1009.0
20260504213730 23 10 3.2 4.8 0.00 0.00 0.00 41 1009.0
20260504213226 23 236 8.0 9.7 0.00 0.00 0.00 40 1009.1
20260504212723 22 286 9.7 9.7 0.00 0.00 0.00 40 1009.1
20260504212220 23 148 8.0 12.9 0.00 0.00 0.00 40 1009.0
20260504211717 22 287 9.7 14.5 0.00 0.00 0.00 40 1008.9
20260504211213 22 245 4.8 8.0 0.00 0.00 0.00 41 1009.2
20260504210711 22 246 12.9 17.7 0.00 0.00 0.00 39 1009.3
20260504210207 22 230 8.0 9.7 0.00 0.00 0.00 40 1009.2
20260504205704 22 228 8.0 12.9 0.00 0.00 0.00 40 1009.0
20260504205202 23 209 8.0 12.9 0.00 0.00 0.00 40 1009.2
20260504204700 23 294 3.2 8.0 0.00 0.00 0.00 40 1009.1
20260504204159 23 209 8.0 12.9 0.00 0.00 0.00 40 1009.1
20260504203657 22 274 11.3 14.5 0.00 0.00 0.00 40 1009.1
20260504203155 22 318 4.8 8.0 0.00 0.00 0.00 39 1009.5
20260504202654 22 237 4.8 8.0 0.00 0.00 0.00 42 1009.2
20260504202152 22 214 6.4 9.7 0.00 0.00 0.00 40 1009.3
20260504201649 22 295 16.1 19.3 0.00 0.00 0.00 39 1009.7
20260504201146 22 207 16.1 22.5 0.00 0.00 0.00 40 1009.6
20260504200643 22 297 8.0 14.5 0.00 0.00 0.00 40 1009.6
20260504200140 22 245 9.7 12.9 0.00 0.00 0.00 41 1009.6
20260504195636 22 353 4.8 9.7 0.00 0.00 0.00 41 1009.8
20260504195132 22 280 3.2 4.8 0.00 0.00 0.00 41 1009.7
20260504194629 22 272 16.1 22.5 0.00 0.00 0.00 41 1010.0
20260504194125 22 300 3.2 4.8 0.00 0.00 0.00 41 1010.1
20260504193621 22 300 9.7 19.3 0.00 0.00 0.00 42 1010.2
20260504193120 22 257 20.9 27.4 0.00 0.00 0.00 40 1010.3
20260504192617 22 254 4.8 9.7 0.00 0.00 0.00 42 1010.4
20260504192115 22 182 16.1 22.5 0.00 0.00 0.00 41 1010.4
20260504191614 22 312 8.0 9.7 0.00 0.00 0.00 40 1010.5
20260504191109 22 320 3.2 4.8 0.00 0.00 0.00 41 1010.6
20260504190606 22 354 14.5 22.5 0.00 0.00 0.00 41 1010.7
20260504185559 21 258 4.8 8.0 0.00 0.00 0.00 41 1010.8
20260504185055 21 166 12.9 19.3 0.00 0.00 0.00 40 1010.9
20260504184551 21 257 12.9 14.5 0.00 0.00 0.00 41 1010.8
20260504184046 21 316 14.5 19.3 0.00 0.00 0.00 41 1010.9
20260504183544 21 286 22.5 24.1 0.00 0.00 0.00 40 1010.9
20260504183042 21 271 20.9 27.4 0.00 0.00 0.00 42 1011.2
20260504182539 21 273 8.0 9.7 0.00 0.00 0.00 42 1011.0
20260504182036 21 266 11.3 12.9 0.00 0.00 0.00 41 1011.3
20260504181533 21 277 14.5 17.7 0.00 0.00 0.00 41 1011.6
20260504181031 20 234 11.3 14.5 0.00 0.00 0.00 41 1011.3
20260504180530 21 261 14.5 22.5 0.00 0.00 0.00 42 1011.2
20260504180028 20 213 16.1 22.5 0.00 0.00 0.00 41 1011.5
20260504175525 21 242 9.7 9.7 0.00 0.00 0.00 41 1011.3
20260504175022 20 295 11.3 14.5 0.00 0.00 0.00 42 1011.7
20260504174520 21 299 4.8 4.8 0.00 0.00 0.00 42 1011.5
20260504174017 20 215 11.3 14.5 0.00 0.00 0.00 45 1011.5
20260504173513 20 177 16.1 19.3 0.00 0.00 0.00 43 1011.8
20260504173011 20 194 4.8 9.7 0.00 0.00 0.00 43 1011.7
20260504172507 21 239 8.0 9.7 0.00 0.00 0.00 41 1011.7
20260504172003 20 321 12.9 17.7 0.00 0.00 0.00 44 1012.0
20260504171500 20 242 14.5 17.7 0.00 0.00 0.00 41 1012.0
20260504170957 20 322 27.4 40.2 0.00 0.00 0.00 41 1012.1
20260504170453 20 250 8.0 14.5 0.00 0.00 0.00 44 1012.0
20260504160413 18 207 8.0 9.7 0.00 0.00 0.00 43 1012.8
20260504150837 17 283 3.2 4.8 0.00 0.00 0.00 44 1013.3
20260504150334 17 312 4.8 8.0 0.00 0.00 0.00 46 1013.4
20260504141304 16 206 1.6 3.2 0.00 0.00 0.00 49 1013.9
20260504140800 16 243 1.6 3.2 0.00 0.00 0.00 53 1013.9
20260504140256 16 263 6.4 9.7 0.00 0.00 0.00 50 1013.9
20260504130725 13 204 3.2 4.8 0.00 0.00 0.00 54 1014.1
20260504130220 13 196 1.6 3.2 0.00 0.00 0.00 55 1014.2
20260504120145 10 237 3.2 4.8 0.00 0.00 0.00 59 1014.3
20260504110612 7 345 4.8 4.8 0.00 0.00 0.00 64 1014.2
20260504110108 7 321 1.6 3.2 0.00 0.00 0.00 63 1014.1
20260504100534 7 289 8.0 9.7 0.00 0.00 0.00 64 1014.3
20260504081927 8 330 3.2 4.8 0.00 0.00 0.00 61 1014.7
20260504081424 8 282 6.4 9.7 0.00 0.00 0.00 60 1014.8
20260504080920 8 285 3.2 8.0 0.00 0.00 0.00 60 1014.8
20260504080417 8 340 1.6 4.8 0.00 0.00 0.00 61 1014.6
20260504070344 8 286 9.7 9.7 0.00 0.00 0.00 58 1015.0
20260504050732 10 294 9.7 12.9 0.00 0.00 0.00 54 1014.9
20260504050229 10 269 3.2 3.2 0.00 0.00 0.00 54 1015.0
20260504045726 10 271 4.8 8.0 0.00 0.00 0.00 55 1015.0
20260504045221 10 266 9.7 14.5 0.00 0.00 0.00 55 1014.8
20260504044719 10 245 6.4 9.7 0.00 0.00 0.00 55 1015.0
20260504044217 10 292 8.0 8.0 0.00 0.00 0.00 55 1015.1
20260504043714 10 29 11.3 17.7 0.00 0.00 0.00 55 1014.8
20260504043210 10 284 4.8 4.8 0.00 0.00 0.00 56 1014.8
20260504042708 10 274 8.0 12.9 0.00 0.00 0.00 55 1014.7
20260504042204 10 214 4.8 8.0 0.00 0.00 0.00 54 1014.9
20260504041700 10 229 3.2 8.0 0.00 0.00 0.00 54 1015.0
20260504041156 10 288 4.8 9.7 0.00 0.00 0.00 53 1014.8
20260504040653 10 264 14.5 19.3 0.00 0.00 0.00 53 1014.9
20260504040150 10 316 9.7 12.9 0.00 0.00 0.00 53 1014.7
20260504035647 10 308 9.7 14.5 0.00 0.00 0.00 53 1014.7
20260504035144 10 326 6.4 8.0 0.00 0.00 0.00 53 1014.7
20260504034641 10 317 3.2 8.0 0.00 0.00 0.00 55 1014.8
20260504034138 10 295 3.2 4.8 0.00 0.00 0.00 54 1014.6
20260504033636 10 296 4.8 8.0 0.00 0.00 0.00 53 1014.6
20260504033133 10 232 3.2 4.8 0.00 0.00 0.00 53 1014.7
20260504032629 10 199 3.2 4.8 0.00 0.00 0.00 53 1014.8
20260504032127 10 254 8.0 9.7 0.00 0.00 0.00 53 1014.5
20260504031624 10 321 3.2 4.8 0.00 0.00 0.00 53 1014.5
20260504031120 10 223 0.0 3.2 0.00 0.00 0.00 54 1014.5
20260504030617 11 289 3.2 4.8 0.00 0.00 0.00 50 1014.7
20260504030114 11 302 6.4 8.0 0.00 0.00 0.00 50 1014.3
20260504025610 10 250 1.6 3.2 0.00 0.00 0.00 51 1014.8
20260504025108 10 351 3.2 3.2 0.00 0.00 0.00 51 1014.2
20260504024605 11 317 1.6 4.8 0.00 0.00 0.00 51 1014.3
20260504024101 11 285 4.8 8.0 0.00 0.00 0.00 50 1014.3
20260504023557 11 350 4.8 4.8 0.00 0.00 0.00 49 1014.5
20260504023053 11 259 4.8 8.0 0.00 0.00 0.00 51 1014.3
20260504022550 11 301 3.2 4.8 0.00 0.00 0.00 48 1014.7
20260504022046 11 282 3.2 3.2 0.00 0.00 0.00 47 1014.3
20260504021544 11 300 1.6 3.2 0.00 0.00 0.00 48 1014.5
20260504021040 11 274 3.2 4.8 0.00 0.00 0.00 47 1014.6
20260504020537 11 276 4.8 8.0 0.00 0.00 0.00 47 1014.2
20260504020034 11 300 6.4 8.0 0.00 0.00 0.00 47 1014.5
20260504015530 11 309 1.6 3.2 0.00 0.00 0.00 47 1014.2
20260504015026 11 250 1.6 3.2 0.00 0.00 0.00 47 1014.3
20260504014523 11 297 3.2 4.8 0.00 0.00 0.00 46 1014.5
20260504014020 12 309 1.6 3.2 0.00 0.00 0.00 46 1014.3
20260504013518 12 305 8.0 8.0 0.00 0.00 0.00 45 1014.5
20260504013014 12 312 3.2 4.8 0.00 0.00 0.00 45 1014.2
20260504012512 12 341 4.8 4.8 0.00 0.00 0.00 44 1014.1
20260504012010 12 274 4.8 4.8 0.00 0.00 0.00 44 1014.1